GFSGL_925_thetae_021.txt.gz
Theta_e
296 295 294 294 294 294 293 293 293 293 292 292 292 291 290 289 287 286 285 285 283 283 282 281 281 280 280 279 279 278 278 278 278 278 278 278 277 277 277 276 276 277 277
296 295 295 294 293 293 293 293 292 292 291 292 291 290 290 289 287 286 285 284 283 282 281 280 280 279 279 279 278 277 276 276 276 276 276 276 276 276 276 276 277 277 277
295 295 294 293 292 292 292 291 291 290 291 290 290 289 288 287 287 286 285 284 282 282 281 280 279 279 278 277 277 276 276 276 275 275 275 276 276 276 277 277 277 277 277
296 295 293 292 293 292 291 290 290 289 289 289 289 289 287 287 286 285 284 283 282 281 280 280 279 278 278 277 276 276 276 275 275 275 275 276 276 277 277 278 278 277 277
298 294 293 292 291 291 290 290 289 289 288 288 287 286 285 285 285 284 283 282 281 280 279 278 277 277 277 277 276 276 275 275 275 275 276 277 278 278 277 277 277 277 276
295 294 295 293 291 290 289 289 288 287 286 286 285 285 283 282 282 283 283 281 280 279 278 277 277 277 277 277 278 278 278 277 277 276 277 278 277 277 277 276 276 276 277
292 293 293 292 291 289 289 288 286 285 284 284 283 283 282 282 281 281 281 281 280 278 277 277 276 276 276 276 277 278 278 278 279 278 277 277 277 276 276 276 277 277 277
290 290 291 291 290 288 287 286 285 284 283 283 282 281 281 280 282 282 280 279 278 277 277 277 277 276 276 275 275 275 276 276 276 276 276 276 276 276 277 277 277 275 274
289 289 289 290 289 287 285 284 283 283 281 281 281 280 280 279 282 282 280 277 276 276 276 277 277 276 276 277 276 276 276 276 276 277 277 277 277 277 277 275 273 272 272
289 287 288 289 287 285 284 283 282 282 281 281 280 279 279 279 282 283 281 277 277 276 276 276 276 276 276 277 277 276 276 276 276 275 275 275 275 273 273 272 271 271 271
290 289 286 287 286 285 283 282 281 280 280 279 278 278 278 278 281 282 282 278 277 276 276 276 276 277 277 277 277 277 277 276 276 275 274 273 272 271 271 271 271 271 271
289 289 286 285 284 283 282 281 280 279 278 278 277 276 276 277 279 282 282 278 277 276 276 276 276 276 276 276 277 276 275 275 275 273 271 270 270 270 270 271 271 271 271
286 286 286 284 282 282 281 279 278 278 278 277 277 276 275 275 277 281 282 280 278 275 276 276 275 275 276 275 274 273 273 272 270 269 269 269 269 270 270 270 270 270 270
285 285 284 283 281 280 280 279 278 278 278 277 277 276 275 274 275 279 280 281 278 276 276 276 275 274 272 271 271 270 270 270 269 268 268 268 269 269 269 269 269 270 270
278 281 283 281 280 279 279 278 278 278 278 278 278 277 275 274 274 277 279 280 278 275 275 273 271 270 270 270 270 270 269 269 268 268 268 268 268 268 268 269 269 269 270
274 275 280 281 280 278 278 277 279 279 279 280 278 277 276 276 276 277 279 279 277 274 274 271 269 269 269 269 268 268 268 268 267 267 266 266 267 267 267 267 268 269 269
270 272 275 280 280 278 277 278 277 279 280 280 280 278 277 277 277 278 279 278 277 274 271 269 268 268 267 267 267 267 267 267 266 266 266 266 266 266 266 266 268 268 270
269 270 273 275 279 278 277 277 277 277 279 278 280 279 278 277 278 278 278 278 277 270 270 268 268 268 267 267 266 266 266 266 265 265 266 265 265 265 265 266 267 268 269
268 270 272 276 279 277 276 276 275 276 276 277 278 279 278 278 279 278 278 276 269 268 269 267 268 267 267 266 266 266 266 265 264 265 266 265 265 264 265 267 267 268 268
268 270 270 272 277 275 275 274 275 275 276 277 277 278 277 279 279 279 272 270 268 268 267 267 267 267 266 266 266 266 266 265 264 265 265 264 264 264 266 266 268 268 267
268 270 272 275 275 275 274 274 274 275 276 276 277 276 277 279 275 268 269 269 269 268 267 267 266 266 266 266 266 265 265 265 264 265 265 265 264 264 265 267 268 267 267
271 272 273 276 273 273 273 274 274 275 275 275 275 277 277 270 267 266 267 267 268 267 266 266 266 266 266 266 265 266 266 265 266 265 265 265 265 264 265 267 267 266 266
274 274 273 272 272 273 273 274 274 274 273 272 273 269 267 266 266 267 267 266 265 265 266 266 266 266 266 266 265 266 266 266 266 265 265 266 266 265 267 267 266 265 265
270 270 271 271 271 271 270 270 269 268 269 271 267 266 265 265 265 265 265 265 264 264 264 265 265 265 265 265 266 266 266 266 267 267 267 268 267 267 267 266 265 265 265
267 268 268 268 268 268 267 267 267 268 266 265 264 264 264 265 265 264 264 263 263 263 263 264 264 264 265 265 266 267 267 267 267 268 269 268 269 267 267 265 264 264 265
265 265 265 265 265 265 265 266 265 265 264 263 263 264 264 264 264 263 262 262 262 263 263 263 263 264 264 265 266 267 267 267 268 268 269 269 269 267 266 264 264 264 264

GFSGL_925_thetae_024.txt.gz
Theta_e
295 295 294 294 294 294 294 295 295 295 294 294 293 292 291 290 290 289 288 287 287 286 285 284 284 283 282 282 281 281 280 280 278 279 279 279 279 279 280 281 280 280 280
296 295 294 293 294 294 294 294 294 293 293 293 293 291 290 290 289 288 287 287 286 285 285 283 283 282 281 281 280 280 279 279 278 277 277 277 277 278 278 278 278 278 278
294 294 294 294 293 293 293 293 292 291 291 291 291 290 290 289 287 287 287 286 286 286 285 284 283 281 281 280 279 279 278 277 277 276 276 276 276 277 277 277 278 278 277
292 293 292 293 293 293 292 292 291 291 290 290 290 290 290 289 287 286 285 285 285 284 284 284 283 282 281 280 279 278 277 276 276 275 275 275 276 277 278 278 277 277 277
290 291 291 292 292 293 292 292 291 290 289 289 289 288 288 287 287 285 284 284 283 282 282 283 282 282 281 281 279 278 277 276 276 275 276 276 277 278 277 277 277 276 276
289 289 290 291 291 291 291 290 290 289 288 288 287 287 286 286 285 285 285 283 282 281 281 280 281 280 280 279 278 278 278 277 276 276 276 277 277 277 277 276 276 276 277
289 289 289 288 289 290 291 290 289 288 287 287 286 285 285 285 284 284 283 283 281 281 280 280 279 279 278 278 279 279 279 279 278 279 278 278 277 277 276 276 277 277 278
288 288 288 287 287 287 289 288 288 287 287 286 285 284 284 283 284 284 283 282 281 280 280 280 279 278 277 277 278 279 279 279 280 279 278 277 277 277 277 278 277 276 274
287 288 287 286 286 286 286 287 286 285 285 284 284 283 283 282 283 284 284 279 279 278 278 278 278 277 278 277 277 277 277 277 277 277 278 278 279 278 278 276 274 273 272
286 286 286 285 285 285 285 285 285 284 284 283 283 282 282 282 282 284 284 278 278 277 277 277 277 278 278 278 276 276 276 276 276 276 277 276 276 275 274 273 272 272 271
283 281 281 283 284 285 286 284 283 283 282 282 281 281 281 281 281 284 285 279 278 278 277 277 277 278 278 279 279 277 277 276 277 276 276 275 274 273 273 273 272 271 271
278 278 279 282 285 284 284 284 282 281 280 280 279 278 279 279 280 284 285 279 279 278 277 277 277 278 278 279 280 278 278 278 276 275 274 273 272 272 272 271 271 271 271
275 276 277 276 278 283 282 281 280 280 279 278 277 277 277 278 279 283 285 282 280 278 277 277 277 279 279 280 279 278 277 276 275 274 271 271 271 270 270 270 270 270 269
272 272 273 274 276 280 281 281 280 280 279 279 278 278 277 277 278 281 284 284 281 278 278 278 278 279 279 278 277 276 274 273 272 271 270 270 270 270 269 269 269 269 269
269 270 270 272 273 276 280 281 280 280 281 280 280 279 278 277 277 279 283 283 280 277 277 277 277 276 274 274 273 272 271 270 270 269 269 269 268 268 268 268 268 268 268
267 267 269 270 271 273 276 280 280 281 281 281 282 279 278 278 278 279 282 283 280 278 276 276 274 273 272 270 270 269 269 269 269 268 268 268 267 267 267 267 267 267 267
265 265 266 267 269 271 274 279 279 279 281 282 282 282 280 278 279 279 281 283 280 278 275 273 272 271 271 270 269 269 268 268 268 268 267 267 267 266 266 266 266 266 267
264 264 265 266 267 269 272 275 279 279 278 280 282 282 282 280 280 280 281 282 282 277 273 272 271 270 269 269 268 268 267 267 267 267 267 267 267 265 264 265 265 266 267
264 265 266 267 268 269 271 274 278 278 278 279 279 280 282 281 280 280 281 281 280 272 271 271 270 269 268 268 268 267 267 267 267 267 267 267 267 265 264 264 265 266 266
264 265 265 266 267 269 270 273 277 276 276 277 278 279 280 280 279 280 281 280 273 271 269 268 268 269 269 267 267 267 266 266 266 267 267 267 266 265 264 264 264 265 266
264 264 265 266 268 270 271 274 275 275 276 276 277 278 278 278 279 280 279 271 269 269 269 269 269 268 267 267 266 266 266 266 266 267 266 266 266 265 265 264 264 264 267
265 267 268 269 270 271 274 274 274 274 275 276 277 277 279 277 272 269 268 269 269 269 269 269 268 267 267 267 266 266 266 266 266 266 266 266 266 266 266 264 264 266 266
267 269 272 272 272 273 273 273 274 274 275 275 276 273 269 268 266 266 267 268 269 269 268 268 267 266 266 266 266 266 266 267 266 266 266 267 267 267 266 265 265 265 265
267 268 270 271 271 271 271 270 271 272 272 268 267 266 265 265 265 266 267 267 268 267 266 266 266 266 265 265 266 266 266 266 266 267 267 267 267 268 267 265 266 265 264
265 266 266 267 267 268 268 268 268 266 266 265 264 264 264 264 265 265 266 267 266 265 265 265 265 265 265 265 265 265 266 266 267 267 267 267 268 268 267 267 266 264 263
264 264 265 265 265 266 266 265 265 264 264 263 263 263 263 264 265 265 265 264 264 263 264 264 264 264 264 264 265 265 266 267 267 267 267 268 268 268 268 267 265 264 263

GFSGL_925_thetae_030.txt.gz
Theta_e
290 290 290 291 291 292 292 292 292 292 293 293 293 293 293 292 291 291 291 291 290 290 289 289 289 289 289 289 288 288 288 289 294 286 285 285 284 283 282 282 282 282 283
288 289 289 289 290 290 291 291 291 291 291 292 292 292 292 292 291 290 290 290 290 289 289 288 289 288 288 288 287 287 287 287 288 286 283 283 283 283 282 281 281 282 282
287 287 287 288 288 288 288 288 289 290 290 290 290 290 290 290 290 290 290 290 289 289 289 288 288 287 287 286 286 286 286 285 285 286 283 281 281 280 280 280 280 281 281
286 286 286 286 287 287 286 286 286 287 289 289 290 289 289 290 289 289 289 289 289 288 288 287 287 287 287 286 285 285 284 284 283 284 283 280 280 280 280 281 281 280 281
285 285 285 285 286 286 285 284 284 285 286 288 288 289 289 288 288 288 288 288 288 288 287 287 286 287 286 286 285 284 284 284 283 283 283 281 280 279 280 281 281 282 281
284 284 283 283 284 284 283 282 283 284 285 286 287 287 288 288 288 288 287 287 287 287 287 287 286 285 285 285 285 285 285 284 283 283 283 282 281 281 281 281 281 281 283
283 282 282 282 283 283 281 280 281 283 284 285 286 286 287 287 287 287 287 287 287 287 287 286 285 285 284 284 284 284 284 284 285 283 283 282 281 281 281 281 280 280 281
282 282 281 281 281 281 279 279 280 282 284 284 284 285 286 286 287 287 287 287 287 286 286 286 286 284 283 283 284 284 283 283 283 282 282 282 281 281 281 281 280 280 280
282 281 280 280 279 278 277 278 279 281 282 281 282 283 285 286 286 287 287 287 287 287 286 286 286 285 283 283 283 284 283 281 282 281 280 280 280 280 280 279 279 279 279
281 280 279 278 278 276 276 276 277 278 278 278 281 282 283 284 285 286 286 287 287 287 287 285 284 284 283 283 283 283 282 281 281 280 279 280 280 280 279 279 279 279 278
278 278 277 277 276 275 274 274 274 274 275 276 278 281 282 283 284 285 286 286 287 287 287 285 283 283 283 282 283 283 283 282 281 280 281 280 280 279 280 279 278 277 277
275 275 274 274 273 272 272 272 272 272 274 275 277 280 282 282 283 284 285 286 286 287 287 285 283 282 283 282 284 282 283 282 281 281 281 280 278 277 277 277 275 275 275
272 271 271 270 270 269 269 270 270 271 272 274 276 279 281 282 283 282 284 285 285 286 287 284 281 282 282 282 284 283 283 281 280 280 280 279 278 276 275 274 273 273 273
268 268 267 267 267 267 267 268 269 270 271 273 275 277 280 282 282 282 281 282 284 284 285 282 282 281 282 282 283 282 282 279 280 279 278 277 275 274 273 273 272 272 272
264 264 264 264 265 265 265 266 267 268 269 271 273 274 277 281 282 282 281 281 281 283 283 281 281 281 281 282 283 280 280 278 278 277 276 274 273 273 272 272 272 272 271
263 263 263 263 263 264 264 265 265 267 268 270 272 273 275 276 279 282 282 282 283 283 281 280 281 281 282 282 283 281 279 277 276 275 274 273 273 272 272 272 271 271 271
262 263 263 263 263 263 264 264 265 265 266 268 270 272 274 276 278 283 283 284 283 284 280 281 281 281 282 282 281 277 277 276 275 274 273 273 272 272 271 271 271 271 270
262 262 263 263 263 263 264 264 264 265 266 267 268 270 272 276 282 283 284 284 283 284 281 281 281 281 282 280 276 276 274 273 273 272 272 271 271 271 270 271 270 270 270
262 263 263 264 264 264 264 265 265 265 266 267 268 269 271 275 280 281 285 284 283 284 282 281 281 280 278 277 275 273 273 272 272 271 270 270 269 269 269 269 269 268 268
263 264 264 264 264 265 265 265 265 266 267 267 268 270 271 277 279 281 285 283 283 284 281 279 277 275 275 274 273 271 271 270 270 269 268 268 268 268 268 268 268 268 268
263 264 265 266 266 266 266 267 267 267 267 268 270 271 277 278 279 280 283 282 282 278 276 275 273 274 272 271 270 269 269 268 268 267 267 267 267 267 267 267 267 267 267
264 264 265 266 267 268 270 270 269 268 268 270 272 276 276 275 276 274 273 273 273 273 273 273 273 271 270 269 269 268 267 267 268 268 267 267 267 266 266 266 266 267 267
263 264 265 266 267 268 269 270 271 272 272 272 271 271 270 269 268 268 268 269 269 270 270 270 270 268 269 269 268 268 268 268 269 269 268 267 267 266 266 266 266 266 266
263 263 264 265 265 266 267 267 267 267 267 266 266 266 265 265 265 264 265 265 266 267 267 268 269 269 268 268 269 269 269 269 269 268 268 267 266 266 265 266 266 266 266
261 262 263 263 264 264 265 265 265 265 265 265 264 264 264 263 263 263 263 264 264 265 266 267 268 268 269 268 268 268 268 267 267 267 267 267 267 266 266 266 266 265 266
260 261 261 262 262 263 263 263 263 264 264 263 263 263 263 263 263 263 263 264 265 266 266 266 266 267 268 267 267 266 266 266 266 266 266 266 266 267 266 267 267 266 266

GFSGL_925_thetae_033.txt.gz
Theta_e
289 289 289 289 290 290 289 289 290 291 292 292 293 293 294 295 295 295 295 294 294 294 293 293 293 293 293 293 293 293 293 295 299 290 290 289 288 287 287 285 284 284 284
287 288 288 287 288 288 288 287 286 286 287 289 291 291 292 293 294 294 294 293 293 293 293 292 292 293 292 292 291 291 291 292 295 288 287 287 287 286 285 285 284 284 283
286 286 286 286 287 287 287 286 285 285 285 286 287 289 291 291 291 292 293 292 292 292 293 292 292 291 291 291 291 291 290 290 291 290 285 285 285 285 284 283 283 283 282
285 285 285 285 285 285 286 285 283 283 284 284 285 286 287 289 289 290 290 291 291 291 292 291 291 291 291 290 290 290 289 288 288 289 286 284 283 283 283 282 281 281 282
285 285 284 284 283 283 284 283 282 282 283 284 285 285 286 286 288 288 289 289 289 289 290 290 290 291 290 290 289 289 288 288 287 287 287 284 282 281 281 282 282 282 281
284 284 284 283 283 283 283 283 281 281 282 283 284 285 285 286 286 287 288 288 288 288 288 289 289 289 289 289 289 289 288 288 287 287 287 285 284 283 281 282 282 283 283
284 283 283 283 282 282 281 281 281 280 280 281 283 284 284 284 285 287 287 288 288 288 288 288 288 288 288 287 287 288 288 287 289 287 287 287 285 283 282 283 282 283 284
283 283 282 282 282 281 281 280 279 279 280 280 281 282 282 281 283 285 286 287 288 288 288 287 287 288 287 286 286 286 287 287 287 288 287 288 286 284 284 284 283 282 282
282 281 281 281 281 280 279 279 278 278 278 278 278 279 279 280 282 283 285 286 287 287 287 288 287 287 287 287 285 286 286 286 286 287 287 286 285 284 284 283 282 281 281
280 280 280 279 279 279 278 278 277 276 276 276 276 276 277 278 279 281 283 285 286 287 287 287 287 287 287 287 286 285 286 286 285 285 285 284 284 283 283 283 282 281 282
277 277 276 276 276 276 275 275 275 274 274 273 273 274 274 276 277 279 282 284 285 286 287 287 287 287 287 286 286 285 285 285 285 284 282 282 282 282 282 281 281 281 281
273 272 271 271 270 271 271 271 271 271 271 271 271 272 273 275 277 279 281 283 284 286 286 287 287 288 287 287 286 286 285 285 283 283 281 281 281 281 281 280 280 280 280
268 267 266 266 266 266 267 267 268 268 269 269 270 271 272 274 275 277 280 282 284 284 285 286 287 288 287 286 286 285 285 285 282 282 281 281 281 281 280 280 279 278 277
265 264 264 264 264 264 265 265 266 266 267 268 268 270 271 272 274 276 279 282 283 283 283 285 286 287 286 285 285 285 285 285 284 282 282 282 281 279 277 276 275 275 274
264 263 263 264 264 264 264 264 265 265 266 266 267 268 269 270 271 273 275 277 281 282 282 283 285 285 284 284 284 284 284 285 283 282 282 280 278 277 275 275 274 273 273
263 263 263 263 264 264 264 264 265 266 267 268 268 269 270 271 272 273 275 276 277 280 284 283 284 284 283 283 283 283 283 282 281 280 279 276 276 275 274 274 273 273 273
262 262 262 263 263 264 264 265 265 265 265 266 267 268 269 270 271 273 274 275 277 280 283 284 284 283 282 282 283 283 282 279 279 277 276 276 275 274 274 273 273 273 273
262 262 262 263 264 264 265 265 265 265 266 266 266 267 268 270 271 273 274 276 279 280 282 284 283 282 282 282 283 282 280 277 277 276 276 275 274 274 273 273 272 272 272
262 262 262 263 264 265 265 266 266 266 266 266 266 267 267 269 271 273 275 277 281 284 284 284 282 282 282 281 279 278 277 276 276 275 274 274 273 273 273 272 272 271 271
262 262 263 264 265 266 266 267 267 267 267 267 267 268 268 270 272 275 279 280 281 284 283 283 282 281 279 278 276 275 275 274 273 273 272 272 272 272 271 271 270 270 269
263 264 264 265 265 266 267 268 270 271 270 269 269 269 272 275 277 278 279 280 283 282 280 278 278 277 277 276 274 273 273 272 271 271 270 270 270 270 270 270 269 269 269
263 263 264 264 265 266 267 268 269 269 270 271 271 271 271 270 271 272 273 274 276 276 276 276 275 275 274 273 272 271 270 270 269 269 269 269 269 269 269 269 268 268 268
262 263 263 264 265 265 266 267 267 267 267 267 267 267 267 266 266 267 267 268 270 271 271 271 271 271 271 271 271 271 270 269 269 269 268 268 268 268 268 267 268 268 268
261 262 262 263 264 264 265 265 265 265 265 265 265 265 265 265 265 265 265 266 267 268 269 269 269 269 269 269 269 269 269 269 269 269 270 268 268 267 267 267 267 267 267
261 261 261 262 263 263 264 264 264 264 264 264 264 264 264 264 264 264 264 264 265 265 265 266 266 267 267 268 268 268 268 270 270 269 269 269 268 267 267 267 267 266 266
261 261 261 261 262 262 263 263 264 264 264 264 264 263 263 263 263 263 263 264 264 264 265 265 266 267 267 268 268 269 269 269 269 268 268 267 267 267 267 267 267 267 266